Torna al catalogo

SL-16 DEB

AttivoLEO
NORAD 22620·DEBRIS·🇷🇺 Russia

Lanciato Mar 26, 1993 da Baikonur Cosmodrome

Loading…

Prossimi Passaggi (prossime 24 ore)

TLE

AggiornatoSource: Space-Track

Epoca: Sep 14, 2026, 14:49 UTC

1 22620U 93016AE  26257.61793626 -.00000019  00000-0  20344-4 0  9991
2 22620  71.0086  17.6243 0132053  81.5358 291.4906 13.84136984689914

Traccia SL-16 DEB in tempo reale con AllMySat

Download on the App Store